| time (UTC) | temp F | wind direction | speed MPH | gust MPH | rain 1hr in | rain 24hr in | rain mn in | humidity % | barometer mb |
| 20260507130021 | 51 | 360 | 0.0 | 1.0 | 0.00 | 0.32 | 0.07 | 86 | 1012.7 |
| 20260507124520 | 51 | 360 | 0.0 | 0.0 | 0.00 | 0.32 | 0.07 | 86 | 1012.8 |
| 20260507123022 | 51 | 360 | 0.0 | 0.0 | 0.00 | 0.32 | 0.07 | 86 | 1012.8 |
| 20260507121517 | 51 | 360 | 0.0 | 1.0 | 0.00 | 0.32 | 0.07 | 87 | 1012.7 |
| 20260507120016 | 51 | 360 | 0.0 | 0.0 | 0.00 | 0.32 | 0.07 | 87 | 1012.6 |
| 20260507114515 | 51 | 360 | 0.0 | 2.0 | 0.00 | 0.32 | 0.07 | 88 | 1012.5 |
| 20260507113014 | 52 | 360 | 0.0 | 6.0 | 0.00 | 0.32 | 0.07 | 89 | 1012.3 |
| 20260507111516 | 52 | 360 | 0.0 | 5.0 | 0.00 | 0.32 | 0.07 | 89 | 1012.2 |
| 20260507110009 | 53 | 360 | 0.0 | 0.0 | 0.00 | 0.32 | 0.07 | 89 | 1012.2 |
| 20260507104506 | 53 | 360 | 0.0 | 0.0 | 0.01 | 0.32 | 0.07 | 90 | 1012.1 |
| 20260507103004 | 53 | 360 | 0.0 | 2.0 | 0.01 | 0.32 | 0.07 | 90 | 1011.9 |
| 20260507101502 | 53 | 360 | 0.0 | 3.0 | 0.01 | 0.32 | 0.07 | 90 | 1011.7 |
| 20260507100002 | 54 | 360 | 0.0 | 0.0 | 0.01 | 0.32 | 0.07 | 90 | 1011.5 |
| 20260507094603 | 54 | 360 | 0.0 | 0.0 | 0.00 | 0.31 | 0.06 | 90 | 1011.7 |
| 20260507093102 | 54 | 360 | 0.0 | 0.0 | 0.00 | 0.31 | 0.06 | 90 | 1011.5 |
| 20260507091558 | 54 | 360 | 0.0 | 0.0 | 0.00 | 0.31 | 0.06 | 90 | 1011.5 |
| 20260507090100 | 54 | 360 | 0.0 | 0.0 | 0.00 | 0.31 | 0.06 | 90 | 1011.6 |
| 20260507084605 | 54 | 360 | 0.0 | 0.0 | 0.00 | 0.31 | 0.06 | 90 | 1011.3 |
| 20260507083054 | 54 | 360 | 0.0 | 0.0 | 0.00 | 0.31 | 0.06 | 90 | 1011.3 |
| 20260507081557 | 54 | 360 | 0.0 | 2.0 | 0.02 | 0.31 | 0.06 | 89 | 1010.9 |
| 20260507080054 | 54 | 360 | 0.0 | 3.0 | 0.02 | 0.31 | 0.06 | 89 | 1010.7 |
| 20260507074552 | 55 | 360 | 0.0 | 4.0 | 0.02 | 0.31 | 0.06 | 89 | 1010.6 |
| 20260507073048 | 55 | 360 | 0.0 | 3.0 | 0.01 | 0.30 | 0.05 | 89 | 1010.3 |
| 20260507071548 | 56 | 360 | 0.0 | 1.0 | 0.00 | 0.28 | 0.04 | 89 | 1010.4 |
| 20260507070101 | 56 | 360 | 0.0 | 1.0 | 0.00 | 0.28 | 0.04 | 89 | 1010.3 |
| 20260507064551 | 57 | 360 | 0.0 | 2.0 | 0.01 | 0.28 | 0.04 | 89 | 1010.5 |
| 20260507063041 | 57 | 360 | 0.0 | 5.0 | 0.01 | 0.28 | 0.04 | 89 | 1010.5 |
| 20260507061541 | 57 | 360 | 0.0 | 3.0 | 0.01 | 0.28 | 0.04 | 88 | 1010.4 |
| 20260507060038 | 58 | 360 | 0.0 | 4.0 | 0.02 | 0.28 | 0.04 | 87 | 1010.3 |
| 20260507054552 | 58 | 360 | 0.0 | 0.0 | 0.03 | 0.28 | 0.03 | 86 | 1010.5 |
| 20260507053035 | 59 | 360 | 0.0 | 1.0 | 0.03 | 0.28 | 0.03 | 85 | 1010.6 |
| 20260507051531 | 60 | 360 | 0.0 | 4.0 | 0.03 | 0.28 | 0.03 | 83 | 1010.2 |
| 20260507050040 | 60 | 360 | 0.0 | 2.0 | 0.01 | 0.26 | 0.01 | 81 | 1011.1 |
| 20260507044527 | 61 | 360 | 0.0 | 5.0 | 0.00 | 0.25 | 0.00 | 79 | 1010.3 |
| 20260507043025 | 61 | 360 | 0.0 | 2.0 | 0.00 | 0.25 | 0.00 | 79 | 1010.5 |
| 20260507041521 | 62 | 360 | 0.0 | 2.0 | 0.00 | 0.25 | 0.00 | 78 | 1010.5 |
| 20260507040019 | 62 | 360 | 0.0 | 2.0 | 0.00 | 0.25 | 0.25 | 78 | 1010.2 |
| 20260507034521 | 63 | 360 | 0.0 | 3.0 | 0.00 | 0.25 | 0.25 | 77 | 1009.9 |
| 20260507033019 | 63 | 360 | 2.0 | 7.0 | 0.00 | 0.25 | 0.25 | 80 | 1010.1 |
| 20260507031518 | 63 | 360 | 0.0 | 3.0 | 0.00 | 0.25 | 0.25 | 79 | 1010.0 |
| 20260507030019 | 64 | 360 | 0.0 | 1.0 | 0.00 | 0.25 | 0.25 | 78 | 1009.3 |
| 20260507024518 | 64 | 360 | 0.0 | 2.0 | 0.00 | 0.25 | 0.25 | 77 | 1009.7 |
| 20260507023017 | 64 | 360 | 0.0 | 9.0 | 0.00 | 0.25 | 0.25 | 78 | 1009.2 |
| 20260507021521 | 65 | 360 | 0.0 | 4.0 | 0.00 | 0.25 | 0.25 | 79 | 1009.4 |
| 20260507020016 | 65 | 360 | 1.0 | 4.0 | 0.00 | 0.25 | 0.25 | 79 | 1009.0 |
| 20260507014517 | 66 | 360 | 0.0 | 5.0 | 0.00 | 0.25 | 0.25 | 81 | 1009.0 |
| 20260507013016 | 66 | 360 | 0.0 | 2.0 | 0.00 | 0.25 | 0.25 | 83 | 1009.3 |
| 20260507011520 | 67 | 360 | 0.0 | 0.0 | 0.00 | 0.25 | 0.25 | 84 | 1009.2 |
| 20260507010021 | 67 | 360 | 0.0 | 0.0 | 0.00 | 0.25 | 0.25 | 83 | 1009.2 |
| 20260507004515 | 67 | 360 | 0.0 | 0.0 | 0.00 | 0.25 | 0.25 | 83 | 1008.9 |
| 20260507003015 | 67 | 360 | 0.0 | 0.0 | 0.00 | 0.25 | 0.25 | 83 | 1008.7 |
| 20260507001515 | 67 | 360 | 0.0 | 0.0 | 0.00 | 0.25 | 0.25 | 82 | 1008.6 |
| 20260507000018 | 67 | 360 | 0.0 | 0.0 | 0.00 | 0.25 | 0.25 | 81 | 1008.6 |
| 20260506234513 | 68 | 360 | 0.0 | 0.0 | 0.00 | 0.25 | 0.25 | 81 | 1008.7 |
| 20260506233013 | 68 | 360 | 0.0 | 2.0 | 0.00 | 0.25 | 0.25 | 80 | 1008.3 |
| 20260506231513 | 68 | 360 | 0.0 | 3.0 | 0.00 | 0.25 | 0.25 | 80 | 1008.0 |
| 20260506230011 | 68 | 360 | 0.0 | 5.0 | 0.00 | 0.25 | 0.25 | 80 | 1008.0 |
| 20260506224512 | 68 | 360 | 0.0 | 2.0 | 0.00 | 0.25 | 0.25 | 80 | 1008.1 |
| 20260506223011 | 68 | 360 | 0.0 | 1.0 | 0.00 | 0.25 | 0.25 | 80 | 1007.9 |
| 20260506221510 | 68 | 360 | 0.0 | 2.0 | 0.00 | 0.25 | 0.25 | 80 | 1007.9 |
| 20260506220010 | 68 | 360 | 0.0 | 3.0 | 0.00 | 0.25 | 0.25 | 80 | 1007.9 |
| 20260506214510 | 69 | 360 | 0.0 | 6.0 | 0.00 | 0.25 | 0.25 | 80 | 1007.8 |
| 20260506213009 | 69 | 360 | 0.0 | 3.0 | 0.00 | 0.25 | 0.25 | 80 | 1007.8 |
| 20260506211508 | 69 | 360 | 0.0 | 5.0 | 0.00 | 0.25 | 0.25 | 79 | 1007.6 |
| 20260506210010 | 69 | 360 | 2.0 | 5.0 | 0.00 | 0.25 | 0.25 | 79 | 1007.3 |
| 20260506204515 | 69 | 360 | 1.0 | 5.0 | 0.00 | 0.25 | 0.25 | 80 | 1007.5 |
| 20260506203006 | 69 | 360 | 1.0 | 6.0 | 0.00 | 0.25 | 0.25 | 79 | 1007.3 |
| 20260506201508 | 69 | 360 | 2.0 | 6.0 | 0.00 | 0.25 | 0.25 | 80 | 1007.4 |
| 20260506200009 | 68 | 360 | 0.0 | 4.0 | 0.00 | 0.25 | 0.25 | 81 | 1007.5 |
| 20260506194504 | 68 | 360 | 2.0 | 5.0 | 0.00 | 0.25 | 0.25 | 80 | 1007.6 |
| 20260506193002 | 68 | 360 | 2.0 | 7.0 | 0.00 | 0.25 | 0.25 | 79 | 1007.6 |
| 20260506191502 | 68 | 360 | 1.0 | 4.0 | 0.00 | 0.25 | 0.25 | 81 | 1007.7 |
| 20260506190100 | 67 | 360 | 1.0 | 5.0 | 0.00 | 0.25 | 0.25 | 82 | 1007.8 |
| 20260506184604 | 66 | 360 | 1.0 | 6.0 | 0.00 | 0.25 | 0.25 | 83 | 1008.0 |
| 20260506183104 | 66 | 360 | 1.0 | 5.0 | 0.00 | 0.25 | 0.25 | 84 | 1008.2 |
| 20260506181606 | 65 | 360 | 2.0 | 7.0 | 0.00 | 0.25 | 0.25 | 85 | 1008.1 |
| 20260506180056 | 64 | 360 | 4.0 | 9.0 | 0.00 | 0.25 | 0.25 | 87 | 1008.3 |
| 20260506174555 | 63 | 360 | 0.0 | 5.0 | 0.00 | 0.25 | 0.25 | 90 | 1008.5 |
| 20260506173125 | 63 | 360 | 1.0 | 3.0 | 0.00 | 0.25 | 0.25 | 91 | 1008.5 |
| 20260506171557 | 62 | 360 | 2.0 | 6.0 | 0.00 | 0.25 | 0.25 | 92 | 1008.5 |
| 20260506170106 | 62 | 360 | 2.0 | 8.0 | 0.00 | 0.25 | 0.25 | 92 | 1008.8 |
| 20260506164552 | 62 | 360 | 1.0 | 6.0 | 0.00 | 0.25 | 0.25 | 93 | 1008.7 |
| 20260506163056 | 61 | 360 | 0.0 | 7.0 | 0.00 | 0.25 | 0.25 | 93 | 1008.9 |
| 20260506161550 | 61 | 360 | 2.0 | 8.0 | 0.01 | 0.25 | 0.25 | 93 | 1008.8 |
| 20260506160048 | 61 | 360 | 1.0 | 7.0 | 0.03 | 0.25 | 0.25 | 93 | 1008.9 |
| 20260506154605 | 60 | 360 | 1.0 | 7.0 | 0.04 | 0.25 | 0.25 | 93 | 1009.0 |
| 20260506153046 | 60 | 360 | 1.0 | 5.0 | 0.04 | 0.25 | 0.25 | 93 | 1009.2 |
| 20260506151544 | 60 | 360 | 2.0 | 10.0 | 0.04 | 0.24 | 0.24 | 93 | 1009.2 |
| 20260506150043 | 60 | 360 | 2.0 | 5.0 | 0.07 | 0.22 | 0.22 | 92 | 1009.6 |
| 20260506144551 | 60 | 360 | 1.0 | 4.0 | 0.09 | 0.21 | 0.21 | 92 | 1009.9 |
| 20260506143042 | 60 | 360 | 2.0 | 6.0 | 0.14 | 0.21 | 0.21 | 92 | 1009.7 |
| 20260506141540 | 60 | 360 | 2.0 | 8.0 | 0.16 | 0.19 | 0.19 | 91 | 1009.7 |
| 20260506140038 | 61 | 360 | 1.0 | 5.0 | 0.13 | 0.15 | 0.15 | 90 | 1009.7 |
| 20260506134537 | 61 | 360 | 0.0 | 4.0 | 0.10 | 0.12 | 0.12 | 90 | 1010.0 |
| 20260506133042 | 61 | 360 | 1.0 | 5.0 | 0.06 | 0.07 | 0.07 | 89 | 1010.2 |
| 20260506131534 | 62 | 360 | 1.0 | 3.0 | 0.03 | 0.03 | 0.03 | 88 | 1010.3 |